When you browse on this site, cookies collect data to enhance your experience and personalize the content and advertising you see.
Visit our Privacy Policy to learn more. By continuing to use the site, you agree to this use of cookies and data.
EN

Hourly Weather Luksor

Today, 10 July, Friday

Time Temperature Precipitation Wind Pressure Humidity
00:00 +31°C° 0 mm 3 mps 747 mmHg 26%
01:00 +30°C° 0 mm 2 mps 747 mmHg 27%
02:00 +30°C° 0 mm 2 mps 747 mmHg 28%
03:00 +29°C° 0 mm 2 mps 747 mmHg 30%
04:00 +28°C° 0 mm 1 mps 747 mmHg 33%
05:00 +27°C° 0 mm 1 mps 747 mmHg 35%
06:00 +29°C° 0 mm 1 mps 747 mmHg 32%
07:00 +31°C° 0 mm 2 mps 747 mmHg 30%
08:00 +34°C° 0 mm 2 mps 748 mmHg 27%
09:00 +36°C° 0 mm 3 mps 748 mmHg 25%
10:00 +38°C° 0 mm 3 mps 748 mmHg 22%
11:00 +40°C° 0 mm 4 mps 747 mmHg 19%
12:00 +42°C° 0 mm 5 mps 747 mmHg 17%
13:00 +43°C° 0 mm 5 mps 746 mmHg 16%
14:00 +45°C° 0 mm 6 mps 746 mmHg 14%
15:00 +45°C° 0 mm 6 mps 746 mmHg 14%
16:00 +44°C° 0 mm 7 mps 745 mmHg 15%
17:00 +44°C° 0 mm 7 mps 745 mmHg 15%
18:00 +41°C° 0 mm 6 mps 746 mmHg 17%
19:00 +39°C° 0 mm 5 mps 746 mmHg 18%
20:00 +37°C° 0 mm 4 mps 746 mmHg 20%
21:00 +36°C° 0 mm 4 mps 746 mmHg 21%
22:00 +35°C° 0 mm 4 mps 747 mmHg 22%
23:00 +34°C° 0 mm 3 mps 747 mmHg 23%

Tomorrow, 11 July, Saturday

Time Temperature Precipitation Wind Pressure Humidity
00:00 +33°C° 0 mm 3 mps 747 mmHg 24%
01:00 +31°C° 0 mm 3 mps 747 mmHg 25%
02:00 +30°C° 0 mm 2 mps 746 mmHg 26%
03:00 +30°C° 0 mm 2 mps 747 mmHg 27%
04:00 +29°C° 0 mm 2 mps 747 mmHg 29%
05:00 +28°C° 0 mm 2 mps 747 mmHg 31%
06:00 +31°C° 0 mm 2 mps 747 mmHg 29%
07:00 +34°C° 0 mm 3 mps 747 mmHg 26%
08:00 +36°C° 0 mm 3 mps 748 mmHg 24%
09:00 +38°C° 0 mm 4 mps 747 mmHg 22%
10:00 +41°C° 0 mm 5 mps 747 mmHg 20%
11:00 +44°C° 0 mm 6 mps 747 mmHg 17%
12:00 +45°C° 0 mm 6 mps 747 mmHg 15%
13:00 +46°C° 0 mm 6 mps 746 mmHg 12%
14:00 +47°C° 0 mm 6 mps 745 mmHg 9%
15:00 +47°C° 0 mm 7 mps 745 mmHg 10%
16:00 +46°C° 0 mm 8 mps 745 mmHg 10%
17:00 +47°C° 0 mm 9 mps 744 mmHg 10%
18:00 +44°C° 0 mm 9 mps 745 mmHg 12%
19:00 +41°C° 0 mm 8 mps 745 mmHg 13%
20:00 +39°C° 0 mm 7 mps 746 mmHg 15%
21:00 +38°C° 0 mm 7 mps 746 mmHg 16%
22:00 +36°C° 0 mm 6 mps 746 mmHg 18%
23:00 +35°C° 0 mm 5 mps 746 mmHg 19%

Day after tomorrow, 12 July, Sunday

Time Temperature Precipitation Wind Pressure Humidity
00:00 +34°C° 0 mm 5 mps 745 mmHg 20%
01:00 +34°C° 0 mm 4 mps 745 mmHg 22%
02:00 +33°C° 0 mm 4 mps 745 mmHg 23%
03:00 +31°C° 0 mm 3 mps 745 mmHg 25%
04:00 +30°C° 0 mm 3 mps 745 mmHg 27%
05:00 +29°C° 0 mm 2 mps 745 mmHg 29%
06:00 +31°C° 0 mm 3 mps 746 mmHg 25%
07:00 +34°C° 0 mm 4 mps 746 mmHg 22%
08:00 +37°C° 0 mm 4 mps 746 mmHg 19%
09:00 +40°C° 0 mm 5 mps 746 mmHg 17%
10:00 +41°C° 0 mm 6 mps 746 mmHg 15%
11:00 +44°C° 0 mm 6 mps 746 mmHg 13%
12:00 +45°C° 0 mm 7 mps 745 mmHg 11%
13:00 +46°C° 0 mm 7 mps 745 mmHg 10%
14:00 +47°C° 0 mm 7 mps 744 mmHg 9%
15:00 +46°C° 0 mm 7 mps 744 mmHg 9%
16:00 +46°C° 0 mm 8 mps 743 mmHg 9%
17:00 +46°C° 0 mm 8 mps 743 mmHg 8%
18:00 +44°C° 0 mm 7 mps 743 mmHg 10%
19:00 +41°C° 0 mm 7 mps 744 mmHg 12%
20:00 +39°C° 0 mm 7 mps 744 mmHg 13%
21:00 +38°C° 0 mm 6 mps 744 mmHg 14%
22:00 +36°C° 0 mm 6 mps 744 mmHg 16%
23:00 +35°C° 0 mm 6 mps 744 mmHg 17%

13 July, Monday

Time Temperature Precipitation Wind Pressure Humidity
00:00 +34°C° 0 mm 5 mps 744 mmHg 19%
01:00 +33°C° 0 mm 5 mps 743 mmHg 21%
02:00 +32°C° 0 mm 4 mps 743 mmHg 23%
03:00 +30°C° 0 mm 4 mps 743 mmHg 26%
04:00 +29°C° 0 mm 3 mps 743 mmHg 28%
05:00 +28°C° 0 mm 3 mps 743 mmHg 31%
06:00 +30°C° 0 mm 4 mps 743 mmHg 29%
07:00 +34°C° 0 mm 6 mps 744 mmHg 28%
08:00 +36°C° 0 mm 7 mps 744 mmHg 26%
09:00 +39°C° 0 mm 7 mps 744 mmHg 22%
10:00 +41°C° 0 mm 7 mps 744 mmHg 18%
11:00 +44°C° 0 mm 6 mps 743 mmHg 14%
12:00 +45°C° 0 mm 6 mps 743 mmHg 13%
13:00 +46°C° 0 mm 6 mps 742 mmHg 12%
14:00 +47°C° 0 mm 5 mps 742 mmHg 10%
15:00 +47°C° 0 mm 6 mps 742 mmHg 10%
16:00 +46°C° 0 mm 6 mps 741 mmHg 10%
17:00 +46°C° 0 mm 6 mps 741 mmHg 10%
18:00 +44°C° 0 mm 6 mps 742 mmHg 11%
19:00 +41°C° 0 mm 6 mps 742 mmHg 12%
20:00 +39°C° 0 mm 6 mps 742 mmHg 13%
21:00 +38°C° 0 mm 7 mps 742 mmHg 14%
22:00 +36°C° 0 mm 7 mps 743 mmHg 15%
23:00 +36°C° 0 mm 7 mps 743 mmHg 16%

14 July, Tuesday

Time Temperature Precipitation Wind Pressure Humidity
00:00 +35°C° 0 mm 6 mps 743 mmHg 17%
01:00 +34°C° 0 mm 5 mps 743 mmHg 19%
02:00 +33°C° 0 mm 4 mps 742 mmHg 20%
03:00 +32°C° 0 mm 4 mps 743 mmHg 22%
04:00 +30°C° 0 mm 3 mps 743 mmHg 24%
05:00 +29°C° 0 mm 3 mps 743 mmHg 26%
06:00 +31°C° 0 mm 3 mps 743 mmHg 25%
07:00 +34°C° 0 mm 3 mps 744 mmHg 24%
08:00 +36°C° 0 mm 3 mps 744 mmHg 24%
09:00 +38°C° 0 mm 3 mps 744 mmHg 20%
10:00 +40°C° 0 mm 3 mps 744 mmHg 17%
11:00 +44°C° 0 mm 3 mps 744 mmHg 14%
12:00 +45°C° 0 mm 2 mps 744 mmHg 13%
13:00 +45°C° 0 mm 1 mps 743 mmHg 11%
14:00 +43°C° 0 mm 0 mps 743 mmHg 10%
15:00 +46°C° 0 mm 1 mps 742 mmHg 10%
16:00 +46°C° 0 mm 1 mps 742 mmHg 10%
17:00 +47°C° 0 mm 2 mps 742 mmHg 9%
18:00 +45°C° 0 mm 3 mps 743 mmHg 10%
19:00 +43°C° 0 mm 5 mps 743 mmHg 11%
20:00 +40°C° 0 mm 6 mps 744 mmHg 12%
21:00 +39°C° 0 mm 6 mps 744 mmHg 13%
22:00 +38°C° 0 mm 6 mps 744 mmHg 14%
23:00 +36°C° 0 mm 5 mps 744 mmHg 14%

15 July, Wednesday

Time Temperature Precipitation Wind Pressure Humidity
00:00 +36°C° 0 mm 5 mps 744 mmHg 15%
01:00 +35°C° 0 mm 4 mps 744 mmHg 16%
02:00 +34°C° 0 mm 4 mps 744 mmHg 18%
03:00 +33°C° 0 mm 3 mps 745 mmHg 18%
04:00 +31°C° 0 mm 3 mps 745 mmHg 19%
05:00 +30°C° 0 mm 3 mps 745 mmHg 20%
06:00 +32°C° 0 mm 2 mps 746 mmHg 19%
07:00 +35°C° 0 mm 2 mps 746 mmHg 18%
08:00 +37°C° 0 mm 2 mps 746 mmHg 16%
09:00 +39°C° 0 mm 2 mps 746 mmHg 15%
10:00 +41°C° 0 mm 1 mps 746 mmHg 14%
11:00 +44°C° 0 mm 1 mps 745 mmHg 12%
12:00 +45°C° 0 mm 1 mps 745 mmHg 11%
13:00 +46°C° 0 mm 1 mps 744 mmHg 9%
14:00 +47°C° 0 mm 1 mps 744 mmHg 8%
15:00 +48°C° 0 mm 2 mps 744 mmHg 8%
16:00 +48°C° 0 mm 2 mps 743 mmHg 7%
17:00 +48°C° 0 mm 3 mps 743 mmHg 7%
18:00 +47°C° 0 mm 4 mps 744 mmHg 9%
19:00 +45°C° 0 mm 5 mps 744 mmHg 11%
20:00 +42°C° 0 mm 6 mps 744 mmHg 12%
21:00 +41°C° 0 mm 6 mps 744 mmHg 15%
22:00 +40°C° 0 mm 7 mps 744 mmHg 17%
23:00 +39°C° 0 mm 7 mps 745 mmHg 19%
Show more